• In Hungary
  • List of Countries
  • For 7 days
  • Water Temperature
  • Satellite Maps
  • Weather Map
  • News
  • Weather Widgets
  • user-avatar
    Login

    Hourly Weather Wellington

    Today, 17 November, Friday

    Time Temperature Precipitation Wind Pressure Humidity
    00:00 +11°C° 0 mm 6 mps 754 mmHg 84%
    01:00 +11°C° 0 mm 6 mps 754 mmHg 84%
    02:00 +11°C° 0 mm 6 mps 754 mmHg 83%
    03:00 +13°C° 0 mm 6 mps 754 mmHg 83%
    04:00 +13°C° 0 mm 5 mps 754 mmHg 83%
    05:00 +13°C° 0 mm 5 mps 754 mmHg 83%
    06:00 +13°C° 0 mm 4 mps 754 mmHg 81%
    07:00 +14°C° 0 mm 4 mps 754 mmHg 77%
    08:00 +15°C° 0 mm 4 mps 754 mmHg 72%
    09:00 +17°C° 0 mm 3 mps 754 mmHg 68%
    10:00 +18°C° 0 mm 3 mps 754 mmHg 65%
    11:00 +19°C° 0 mm 3 mps 755 mmHg 62%
    12:00 +19°C° 0 mm 3 mps 755 mmHg 59%
    13:00 +19°C° 0 mm 3 mps 755 mmHg 61%
    14:00 +19°C° 0 mm 3 mps 755 mmHg 62%
    15:00 +19°C° 0 mm 3 mps 755 mmHg 64%
    16:00 +18°C° 0 mm 4 mps 755 mmHg 69%
    17:00 +16°C° 0 mm 5 mps 755 mmHg 73%
    18:00 +15°C° 0 mm 6 mps 756 mmHg 77%
    19:00 +14°C° 0 mm 6 mps 756 mmHg 81%
    20:00 +13°C° 0 mm 6 mps 757 mmHg 85%
    21:00 +11°C° 0 mm 6 mps 758 mmHg 89%
    22:00 +11°C° 0 mm 6 mps 758 mmHg 88%
    23:00 +10°C° 0 mm 7 mps 758 mmHg 88%

    Tomorrow, 18 November, Saturday

    Time Temperature Precipitation Wind Pressure Humidity
    00:00 +11°C° 0 mm 6 mps 758 mmHg 89%
    01:00 +10°C° 0 mm 6 mps 758 mmHg 88%
    02:00 +10°C° 0 mm 6 mps 758 mmHg 87%
    03:00 +10°C° 0 mm 7 mps 758 mmHg 86%
    04:00 +10°C° 0 mm 7 mps 758 mmHg 85%
    05:00 +10°C° 0 mm 7 mps 759 mmHg 84%
    06:00 +10°C° 0 mm 7 mps 759 mmHg 82%
    07:00 +10°C° 0 mm 8 mps 759 mmHg 81%
    08:00 +11°C° 0 mm 8 mps 759 mmHg 79%
    09:00 +11°C° 0 mm 8 mps 760 mmHg 78%
    10:00 +12°C° 0 mm 8 mps 759 mmHg 74%
    11:00 +12°C° 0 mm 9 mps 759 mmHg 70%
    12:00 +13°C° 0 mm 9 mps 759 mmHg 67%
    13:00 +13°C° 0 mm 9 mps 759 mmHg 65%
    14:00 +13°C° 0 mm 9 mps 759 mmHg 63%
    15:00 +13°C° 0 mm 9 mps 759 mmHg 61%
    16:00 +13°C° 0 mm 9 mps 759 mmHg 63%
    17:00 +12°C° 0 mm 9 mps 759 mmHg 66%
    18:00 +11°C° 0 mm 9 mps 759 mmHg 68%
    19:00 +10°C° 0 mm 8 mps 759 mmHg 72%
    20:00 +10°C° 0 mm 8 mps 759 mmHg 76%
    21:00 +9°C° 0 mm 7 mps 760 mmHg 80%
    22:00 +9°C° 0 mm 7 mps 760 mmHg 82%
    23:00 +8°C° 0 mm 6 mps 760 mmHg 83%

    Day after tomorrow, 19 November, Sunday

    Time Temperature Precipitation Wind Pressure Humidity
    00:00 +8°C° 0 mm 6 mps 760 mmHg 85%
    01:00 +8°C° 0 mm 6 mps 759 mmHg 85%
    02:00 +8°C° 0 mm 6 mps 759 mmHg 86%
    03:00 +8°C° 0 mm 6 mps 759 mmHg 86%
    04:00 +9°C° 0 mm 6 mps 758 mmHg 85%
    05:00 +9°C° 0 mm 6 mps 758 mmHg 84%
    06:00 +9°C° 0 mm 6 mps 758 mmHg 83%
    07:00 +11°C° 0 mm 6 mps 758 mmHg 78%
    08:00 +13°C° 0 mm 6 mps 758 mmHg 73%
    09:00 +14°C° 0 mm 6 mps 758 mmHg 68%
    10:00 +15°C° 0 mm 6 mps 758 mmHg 66%
    11:00 +15°C° 0 mm 6 mps 757 mmHg 63%
    12:00 +16°C° 0 mm 6 mps 757 mmHg 61%
    13:00 +16°C° 0 mm 6 mps 757 mmHg 61%
    14:00 +16°C° 0 mm 7 mps 756 mmHg 61%
    15:00 +16°C° 0 mm 7 mps 756 mmHg 61%
    16:00 +16°C° 0 mm 6 mps 756 mmHg 63%
    17:00 +15°C° 0 mm 6 mps 756 mmHg 66%
    18:00 +14°C° 0 mm 6 mps 755 mmHg 68%
    19:00 +13°C° 0 mm 6 mps 756 mmHg 74%
    20:00 +12°C° 0 mm 5 mps 756 mmHg 81%
    21:00 +9°C° 0 mm 5 mps 756 mmHg 87%
    22:00 +9°C° 0 mm 5 mps 756 mmHg 87%
    23:00 +10°C° 0 mm 4 mps 756 mmHg 88%

    20 November, Monday

    Time Temperature Precipitation Wind Pressure Humidity
    00:00 +10°C° 0 mm 4 mps 756 mmHg 89%
    01:00 +10°C° 0 mm 4 mps 756 mmHg 89%
    02:00 +8°C° 0 mm 4 mps 756 mmHg 88%
    03:00 +8°C° 0 mm 4 mps 756 mmHg 88%
    04:00 +9°C° 0 mm 5 mps 756 mmHg 86%
    05:00 +9°C° 0 mm 5 mps 756 mmHg 84%
    06:00 +9°C° 0 mm 5 mps 756 mmHg 82%
    07:00 +11°C° 0 mm 6 mps 756 mmHg 72%
    08:00 +15°C° 0 mm 6 mps 756 mmHg 63%
    09:00 +17°C° 0 mm 6 mps 756 mmHg 53%
    10:00 +17°C° 0 mm 7 mps 756 mmHg 52%
    11:00 +18°C° 0 mm 7 mps 756 mmHg 52%
    12:00 +20°C° 0 mm 8 mps 756 mmHg 51%
    13:00 +18°C° 0 mm 8 mps 755 mmHg 56%
    14:00 +18°C° 0 mm 8 mps 755 mmHg 62%
    15:00 +17°C° 0 mm 8 mps 755 mmHg 67%
    16:00 +17°C° 0 mm 7 mps 755 mmHg 69%
    17:00 +16°C° 0 mm 7 mps 755 mmHg 72%
    18:00 +15°C° 0 mm 7 mps 755 mmHg 75%
    19:00 +14°C° 0 mm 7 mps 756 mmHg 79%
    20:00 +13°C° 0 mm 6 mps 756 mmHg 83%
    21:00 +11°C° 0 mm 6 mps 756 mmHg 86%
    22:00 +11°C° 0 mm 6 mps 757 mmHg 87%
    23:00 +10°C° 0 mm 6 mps 757 mmHg 87%

    21 November, Tuesday

    Time Temperature Precipitation Wind Pressure Humidity
    00:00 +10°C° 0 mm 6 mps 757 mmHg 88%
    01:00 +10°C° 0 mm 6 mps 757 mmHg 87%
    02:00 +10°C° 0 mm 6 mps 756 mmHg 87%
    03:00 +10°C° 0 mm 6 mps 756 mmHg 87%
    04:00 +10°C° 0 mm 5 mps 756 mmHg 87%
    05:00 +12°C° 0 mm 5 mps 756 mmHg 86%
    06:00 +12°C° 0 mm 4 mps 757 mmHg 86%
    07:00 +13°C° 0 mm 5 mps 757 mmHg 83%
    08:00 +13°C° 0 mm 5 mps 757 mmHg 80%
    09:00 +14°C° 0 mm 5 mps 758 mmHg 76%
    10:00 +15°C° 0 mm 6 mps 758 mmHg 73%
    11:00 +16°C° 0 mm 6 mps 758 mmHg 69%
    12:00 +17°C° 0 mm 6 mps 758 mmHg 65%
    13:00 +16°C° 0 mm 6 mps 757 mmHg 66%
    14:00 +16°C° 0 mm 7 mps 757 mmHg 68%
    15:00 +16°C° 0 mm 7 mps 757 mmHg 69%
    16:00 +15°C° 0 mm 7 mps 757 mmHg 72%
    17:00 +14°C° 0 mm 7 mps 757 mmHg 76%
    18:00 +14°C° 0 mm 7 mps 758 mmHg 79%
    19:00 +12°C° 0 mm 8 mps 758 mmHg 80%
    20:00 +11°C° 0 mm 8 mps 759 mmHg 81%
    21:00 +10°C° 0 mm 8 mps 759 mmHg 82%
    22:00 +10°C° 0 mm 8 mps 759 mmHg 83%
    23:00 +10°C° 0 mm 7 mps 759 mmHg 85%

    22 November, Wednesday

    Time Temperature Precipitation Wind Pressure Humidity
    00:00 +10°C° 0 mm 7 mps 760 mmHg 86%
    01:00 +10°C° 0 mm 7 mps 759 mmHg 86%
    02:00 +9°C° 0 mm 7 mps 759 mmHg 87%
    03:00 +9°C° 0 mm 6 mps 759 mmHg 87%
    04:00 +10°C° 0 mm 6 mps 759 mmHg 86%
    05:00 +10°C° 0 mm 6 mps 760 mmHg 86%
    06:00 +10°C° 0 mm 6 mps 760 mmHg 86%
    07:00 +11°C° 0 mm 6 mps 760 mmHg 79%
    08:00 +14°C° 0 mm 5 mps 760 mmHg 73%
    09:00 +15°C° 0 mm 5 mps 761 mmHg 67%
    10:00 +16°C° 0 mm 5 mps 761 mmHg 64%
    11:00 +16°C° 0 mm 5 mps 760 mmHg 61%
    12:00 +17°C° 0 mm 5 mps 760 mmHg 58%
    13:00 +19°C° 0 mm 5 mps 760 mmHg 57%
    14:00 +19°C° 0 mm 5 mps 760 mmHg 55%
    15:00 +19°C° 0 mm 5 mps 760 mmHg 54%
    16:00 +19°C° 0 mm 5 mps 760 mmHg 57%
    17:00 +18°C° 0 mm 4 mps 760 mmHg 60%
    18:00 +18°C° 0 mm 4 mps 760 mmHg 63%
    19:00 +15°C° 0 mm 4 mps 761 mmHg 71%
    20:00 +13°C° 0 mm 3 mps 761 mmHg 80%
    21:00 +11°C° 0 mm 3 mps 761 mmHg 88%
    22:00 +10°C° 0 mm 3 mps 761 mmHg 89%
    23:00 +10°C° 0 mm 2 mps 761 mmHg 91%
    Show more